Terug naar catalogus

SL-3 DEB

ActiefSSO
NORAD 14209·DEBRIS·🇷🇺 Russia

Gelanceerd Jul 24, 1983 vanaf Baikonur Cosmodrome

Loading…

Volgende Passages (komende 24 uur)

TLE

VersSource: Space-Track

Epoch: Sep 14, 2026, 10:35 UTC

1 14209U 83075C   26257.44146018  .00012203  00000-0  19258-3 0  9995
2 14209  97.2132 247.7964 0015424  80.0855 280.2139 15.53523759368099

Volg SL-3 DEB in realtime met AllMySat

Download on the App Store